+ View the NASA Portal
+ Center for Near-Earth Object Studies
IMPORTANT:
The SSD Announcement email list is now available. Major changes are coming in the near future, including possible hostname and/or URL changes. To be notified of such changes, subscribe to this email list.
Please visit
this page
for more details.
Don't show this message again
JPL Small-Body Database Browser
Search:
[
help
]
452687 (2005 XX80)
Classification:
Main-belt Asteroid
SPK-ID:
2452687
[
Ephemeris
|
Orbit Diagram
|
Orbital Elements
|
Mission Design
|
Physical Parameters
|
Discovery Circumstances
|
Close-Approach Data
]
[ show orbit diagram ]
Orbital Elements at Epoch 2458600.5 (2019-Apr-27.0) TDB
Reference:
JPL 11
(heliocentric ecliptic J2000)
Element
Value
Uncertainty (1-sigma)
Units
e
.06064973683356134
1.5108e-07
a
3.038713884129833
6.9329e-08
au
q
2.854416686744869
4.6817e-07
au
i
12.05196731324109
1.3058e-05
deg
node
77.80288704025693
5.7056e-05
deg
peri
38.6523639866579
0.00014637
deg
M
156.7724744845517
0.00013704
deg
t
p
2457757.940742619393
(2017-Jan-04.44074262)
0.00072598
TDB
period
1934.78691750131
5.30
6.6214e-05
1.813e-07
d
yr
n
.1860670013548178
6.3678e-09
deg/d
Q
3.223011081514797
7.3534e-08
au
Orbit Determination Parameters
# obs. used (total)
57
data-arc span
4524 days (12.39 yr)
first obs. used
2005-11-25
last obs. used
2018-04-15
planetary ephem.
DE431
SB-pert. ephem.
SB431-N16
condition code
0
norm. resid. RMS
.72691
source
ORB
producer
Otto Matic
solution date
2019-Jul-14 06:20:25
Additional Information
Earth MOID
= 1.88145 au
Jupiter MOID
= 1.96665 au
T_jup
= 3.204
[ show covariance matrix ]
[
Ephemeris
|
Orbit Diagram
|
Orbital Elements
|
Mission Design
|
Physical Parameters
|
Discovery Circumstances
|
Close-Approach Data
]
Physical Parameter Table
Parameter
Symbol
Value
Units
Sigma
Reference
Notes
absolute magnitude
H
16.5
n/a
MPO437750
452687 (2005 XX80)
Discovered 2005-Nov-25 by Mt. Lemmon Survey at Mount Lemmon
Reference:
Last Updated:
2016-01-04
[ show close-approach data ]
[
Ephemeris
|
Orbit Diagram
|
Orbital Elements
|
Mission Design
|
Physical Parameters
|
Discovery Circumstances
|
Close-Approach Data
]
2019-Dec-06 16:38 UT
(server date/time)
Site Manager:
Ryan S. Park
Webmaster
:
Alan B. Chamberlin